Location: North Evanston
(42.0634°N, 87.6976°W)
Time: 13:46:20
(UTC+00:00)

Vanguard 2 Rocket - Pass Details

Date: 12 May 2026
Orbit: 553 x 3286 km, 32.9° (Epoch: 6 June)

Event Time Altitude Azimuth Distance (km) Brightness Sun altitude
Rises 18:33:34 0° 249° (WSW) 5,930 11.3 64.3°
Reaches altitude 10° 18:37:02 10° 246° (WSW) 5,215 11.2 64.0°
Maximum altitude 18:53:30 62° 171° (S) 3,460 11.5 62.4°
Drops below altitude 10° 19:12:57 10° 97° (E) 6,031 11.0 60.0°
Sets 19:17:19 0° 94° (E) 6,863 11.2 59.5°
